Regional Weather Roundup
Issued by NWS

Home | Current Version | Previous Version | Graphics & Text | Print | Product List | Glossary On
Versions: 1 2 3 4 5 6 7 8 9 10 11 12 13 14 15 16 17 18 19 20 21 22 23 24 25 26 27 28
000
ASUS45 KBOI 250510
RWRID

IDAHO REGIONAL WEATHER ROUNDUP
NATIONAL WEATHER SERVICE BOISE ID
1100 PM MDT SAT JUN 24 2017

NOTE: "FAIR" INDICATES FEW OR NO CLOUDS BELOW 12000 FEET
WITH NO SIGNIFICANT WEATHER AND/OR OBSTRUCTIONS TO VISIBILITY

IDZ012-014-250600-
SOUTHWEST IDAHO


CITY           SKY/WX    TMP DP  RH WIND       PRES   REMARKS
BOISE          CLEAR     75  38  26 N3        30.09R
CALDWELL       CLEAR     74  43  32 W5        30.07R
MOUNTAIN HOME  CLEAR     69  34  28 NW10      30.09R
$$

IDZ016-017-250600-
SOUTHCENTRAL IDAHO


CITY           SKY/WX    TMP DP  RH WIND       PRES   REMARKS
BURLEY         CLEAR     60  46  59 SW6       30.16R
JEROME         CLEAR     73  31  21 SW8       30.17R
TWIN FALLS       N/A     58  39  49 SW7       30.17R
$$

IDZ019>023-250600-
SOUTHEAST IDAHO


CITY           SKY/WX    TMP DP  RH WIND       PRES   REMARKS
IDAHO FALLS    CLEAR     58  51  78 CALM      30.24R
POCATELLO      CLEAR     60  40  47 VRB3      30.21R
REXBURG        CLEAR     62  49  62 NE8       30.25R
$$

IDZ006-010-011-018-031-032-250600-
CENTRAL IDAHO MOUNTAINS


CITY           SKY/WX    TMP DP  RH WIND       PRES   REMARKS
MCCALL         CLEAR     65  34  31 N5        30.25R
HAILEY         CLEAR     57  46  67 W7        30.25R
STANLEY          N/A     53  36  52 S5        30.34R
SALMON         CLEAR     63  37  39 CALM      30.21R
CHALLIS        CLEAR     66  32  28 NW7       30.25R
$$

IDZ002-004-006-007-026-250600-
NORTHERN IDAHO


CITY           SKY/WX    TMP DP  RH WIND       PRES   REMARKS
LEWISTON       CLEAR     73  47  39 S8        30.09R
LOWELL           N/A     62  54  74 CALM      30.13R
COEUR D`ALENE  CLEAR     67  49  52 E6        30.16R
MULLAN PASS    CLEAR     60  36  40 NW5       30.36R
$$




USA.gov is the U.S. government's official web portal to all federal, state and local government web resources and services.